Regional Weather Roundup
Issued by NWS Charleston, SC

Current Version | Previous Version | Text Only | Print | Product List | Glossary Off
Versions: 1 2 3 4 5 6 7 8 9 10 11 12 13 14 15 16 17 18 19 20 21 22 23 24 25 26 27 28 29 30 31 32 33 34 35 36 37 38 39 40 41 42 43 44 45 46 47 48 49 50

000
ASUS42 KCHS 202310
RWRCHS
REGIONAL WEATHER ROUNDUP
NATIONAL WEATHER SERVICE CHARLESTON SC
700 PM EDT MON OCT 20 2014

NOTE: "FAIR" INDICATES FEW OR NO CLOUDS BELOW 12,000 FEET WITH NO
SIGNIFICANT WEATHER AND/OR OBSTRUCTIONS TO VISIBILITY.

NOT ALL STATIONS ARE QUALITY CONTROLLED BY THE NATIONAL
WEATHER SERVICE. USE DATA WITH CAUTION...ESPECIALLY
DEWPOINT OBSERVATIONS.

SCZ027-030-031-034>040-042>050-210000-
...SOUTH CAROLINA...

CITY           SKY/WX    TMP DP  RH WIND       PRES   REMARKS
N CHARLESTON   PTCLDY    68  58  70 S7        30.00R
WATERFRONT PRK   N/A     72 N/A N/A S5          N/A
FORT JOHNSON   NOT AVBL
JOHNS ISLAND   CLEAR     70  63  78 CALM      30.00S
PINOPOLIS        N/A     75  59  57 S2        29.90S
MONCKS CORNER  FAIR      68  64  88 CALM      29.99S
SUMMERVILLE    MOCLDY    68  63  83 CALM      30.00R
BEAUFORT MCAS  MOCLDY    72  62  71 CALM      29.99S
BEAUFORT ARPT  FAIR      68  63  83 CALM      29.98S
HILTON HEAD IS CLEAR     68  64  88 CALM      30.00S
GEORGETOWN     NOT AVBL
WALTERBORO     PTCLDY    68  59  73 CALM      30.00R
ORANGEBURG     PTCLDY    68  54  60 CALM      29.99S
BARNWELL       FAIR      64  55  72 CALM      29.99S
AIKEN          FAIR      64  54  68 CALM      30.02S
MANNING        FAIR      66  63  88 CALM      29.99S
KINGSTREE      NOT AVBL
COLUMBIA       PTCLDY    71  50  47 W3        29.98S
SUMTER         CLEAR     68  55  62 SW2       29.98S
FLORENCE       CLEAR     69  54  58 SW5       29.99R
MYRTLE BEACH   PTCLDY    70  57  64 S7        30.00S
N MYRTLE BEACH PTCLDY    69  58  67 SE5       30.00S

$$

GAZ063-065-086>088-099>101-113>116-118-119-134-136>141-150-210000-
...GEORGIA...

CITY           SKY/WX    TMP DP  RH WIND       PRES   REMARKS
SAVANNAH ARPT  MOCLDY    73  61  65 SE3       29.99S
HUNTER AAF     MOCLDY    71  62  72 SE2       29.97S
FORT STEWART   MOCLDY    72  64  77 CALM      29.97R
STATESBORO     NOT AVBL
SYLVANIA       MOCLDY    73  66  77 CALM      29.99S
CLAXTON        CLOUDY    72  66  83 CALM      29.98R
THOMSON        CLEAR     65  60  85 CALM      30.04S
AUGUSTA-BUSH   CLEAR     65  51  60 CALM      29.98R
AUGUSTA-DANIEL CLEAR     72  47  40 NW5       29.99S
SWAINSBORO     FAIR      72  59  64 MISG      29.99S
VIDALIA        PTCLDY    70  61  73 CALM      29.98S
ALMA           PTCLDY    69  63  81 CALM      29.96S
WAYCROSS       CLEAR     74  69  84 CALM      29.96S
JESUP          FAIR      75  68  78 SE3       29.97S
BRUNSWICK      MOCLDY    75  61  60 SE3       29.98S
SAINT SIMONS   MOCLDY    72  63  73 SE6       29.98S

$$

SCZ027-028-034-036>038-045-046-048>050-GAZ119-141-210000-
...LAKE AND SUPPLEMENTAL COASTAL OBSERVATIONS...

STATION/POSITION TIME  TEMP    WIND        PRES    WAVE   SWELL
                       AIR SEA DIR/SP/G            HT/PER HT/PER/DIR
                 (UTC) (F)     (DEG/KT/KT) (MB)    (FT/S) (FT/S/D)
UPR LAKE MARION  NOT AVBL
WINYAH BAY       2200   73     160/  5     1016.0S
LAKE MURRAY      2200   72     260/  4/  5 1014.9S
ACE BASIN NERRS  2200   73     160/  2     1016.0S
FORT PULASKI     2300   72     130/  2/  3 1015.7R
SAPELO ISLAND    NOT AVBL

$$

ANZ835-935-AMZ111-154-330-350-352-354-374-450-454-472-210000-
...C-MAN AND BUOY OBSERVATIONS...

STATION/POSITION TIME  TEMP    WIND        PRES    WAVE   SWELL
                       AIR SEA DIR/SP/G            HT/PER HT/PER/DIR
                 (UTC) (F)     (DEG/KT/KT) (MB)    (FT/S) (FT/S/D)
FOLLY BEACH CMAN 2200   73     170/  5/  6 1015.9F
BUOY 41004       2300   75 79  210/  6/  8 1015.3F   2/ 9   2/ 9
BUOY 41008       2300   76 76  160/  8/  8 1015.2S   2/10   2/ 80/10
5E ST. MARYS GA  2300      77                N/A     2/10   2/100/11
FRYING PAN BUOY  2300   74 76  160/ 12/ 14 1016.5F   2/11   2/ 60/11
BUOY 41025       2300   71     190/ 16/ 19 1016.8S   3/ 8   3/ 60/ 8
CAPE LOOKOUT NC  2200   70     160/ 10/ 11 1016.4F
BUOY 41002       2233   73 80  120/ 10/ 12 1017.8F   4/ 8   3/ 40/ 8
BUOY 41010       2300   80 80  140/  8/ 10 1015.0R   3/ 7   3/ 50/ 7
BUOY 41012       NOT AVBL
ST AUGUSTINE FL  2300   77     130/ 10/ 12 1015.5S
CAPERS NEARSHORE 2200   73     170/  8/  8   N/A
FRIPP NEARSHORE  NOT AVBL


$$



USA.gov is the U.S. government's official web portal to all federal, state and local government web resources and services.